Weather History for KOXC - January, 2013

Change the Weather History Date:

Wednesday, January 9, 2013

  Actual Average Record
Temperature  
Mean Temperature 33 °F -  
Max Temperature 42 °F 32 °F 60 °F (2008)
Min Temperature 24 °F 19 °F 1 °F (2004)
Degree Days  
Heating Degree Days 32    
Moisture  
Dew Point 25 °F    
Average Humidity 72    
Maximum Humidity 81    
Minimum Humidity 61    
Precipitation  
Precipitation 0.00 in - - ()
Sea Level Pressure  
Sea Level Pressure 30.26 in    
Wind  
Wind Speed 2 mph (WSW)    
Max Wind Speed 12 mph    
Max Gust Speed 16 mph    
Visibility 8 miles    
Events      
Averages and records for this station are not official NWS values.
T = Trace of Precipitation, MM = Missing Value Source: NWS Daily Summary

Daily Weather History Graph

Daily Weather History Graph

Search for Another Location

Airport or City:

Trip Planner

Search our weather history database for the weather conditions in past years. The results will help you decide how hot, cold, wet, or windy it might be!

Date:

Astronomy

Jan. 09, 2013 Rise Set
Actual Time 7:18 AM EST 4:41 PM EST
Civil Twilight 6:47 AM EST 5:12 PM EST
Nautical Twilight 6:13 AM EST 5:46 PM EST
Astronomical Twilight 5:39 AM EST 6:20 PM EST
Moon 4:54 AM EST (1/9) 2:40 PM EST (1/9)
Length of Visible Light 10h 24m
Length of Day
9h 22m
Waning Crescent, 6% of the Moon is Illuminated
Jan 9
Waning Crescent
Jan 11
New
Jan 18
First Quarter
Jan 26
Full
Feb 3
Last Quarter

Hourly Weather History & Observations

Time (EST) Temp. Windchill Dew Point Humidity Pressure Visibility Wind Dir Wind Speed Gust Speed Precip Events Conditions
12:55 AM 26.6 °F - 19.4 °F 74% 30.36 in 10.0 mi Calm Calm - N/A   Clear
1:15 AM 26.6 °F - 19.4 °F 74% 30.36 in 10.0 mi Calm Calm - N/A   Clear
1:35 AM 28.4 °F - 21.2 °F 74% 30.35 in 10.0 mi Calm Calm - N/A   Clear
1:55 AM 28.4 °F - 21.2 °F 74% 30.36 in 9.0 mi Calm Calm - N/A   Clear
2:15 AM 26.6 °F - 19.4 °F 74% 30.36 in 7.0 mi Calm Calm - N/A   Clear
2:55 AM 28.4 °F - 21.2 °F 74% 30.37 in 8.0 mi Calm Calm - N/A   Clear
3:15 AM 28.4 °F - 21.2 °F 74% 30.36 in 8.0 mi Calm Calm - N/A   Clear
3:35 AM 26.6 °F - 21.2 °F 80% 30.37 in 7.0 mi Calm Calm - N/A   Clear
3:55 AM 24.8 °F - 17.6 °F 74% 30.36 in 8.0 mi Calm Calm - N/A   Clear
4:15 AM 26.6 °F - 17.6 °F 69% 30.35 in 8.0 mi Calm Calm - N/A   Clear
4:35 AM 24.8 °F - 17.6 °F 74% 30.35 in 8.0 mi Calm Calm - N/A   Clear
5:15 AM 24.8 °F - 17.6 °F 74% 30.35 in 5.0 mi Calm Calm - N/A   Clear
5:35 AM 26.6 °F - 19.4 °F 74% 30.35 in 7.0 mi Calm Calm - N/A   Clear
5:45 AM 24.8 °F - 19.4 °F 80% 30.36 in 5.0 mi Calm Calm - N/A   Clear
6:45 AM 24.8 °F - 17.6 °F 74% 30.36 in 5.0 mi Calm Calm - N/A   Clear
7:45 AM 24.8 °F - 19.4 °F 80% 30.37 in 4.0 mi Calm Calm - N/A   Clear
8:45 AM 30.2 °F - 24.8 °F 80% 30.36 in 4.0 mi Calm Calm - N/A   Clear
9:45 AM 33.8 °F - 24.8 °F 70% 30.36 in 5.0 mi Calm Calm - N/A   Clear
10:45 AM 35.6 °F - 26.6 °F 70% 30.30 in 5.0 mi Calm Calm - N/A   Clear
11:45 AM - - - N/A% 30.25 in 6.0 mi South 10.4 mph - N/A   Overcast
12:45 PM 39.2 °F 34.2 °F 26.6 °F 61% 30.23 in 8.0 mi SW 6.9 mph - N/A   Clear
1:45 PM 41.0 °F 38.0 °F 28.4 °F 61% 30.24 in 6.0 mi WSW 4.6 mph - N/A   Overcast
2:45 PM 41.0 °F 35.8 °F 30.2 °F 65% 30.17 in 6.0 mi SSW 8.1 mph - N/A   Overcast
3:50 PM 41.0 °F 34.3 °F 32.0 °F 70% 30.08 in 6.0 mi South 11.5 mph - N/A   Mostly Cloudy
5:45 PM 41.0 °F 35.2 °F 32.0 °F 70% 30.11 in 6.0 mi WSW 9.2 mph - N/A   Overcast
6:45 PM 41.0 °F 36.4 °F 33.8 °F 76% 30.13 in 7.0 mi West 6.9 mph - N/A   Partly Cloudy
7:45 PM 41.0 °F 36.4 °F 33.8 °F 76% 30.14 in 7.0 mi West 6.9 mph - N/A   Clear
8:45 PM 39.2 °F 33.6 °F 33.8 °F 81% 30.13 in 7.0 mi West 8.1 mph - N/A   Clear
9:15 PM 41.0 °F 38.0 °F 33.8 °F 76% 30.13 in 10.0 mi WSW 4.6 mph - N/A   Clear
9:35 PM 41.0 °F 36.4 °F 32.0 °F 70% 30.13 in 10.0 mi West 6.9 mph - N/A   Clear
10:15 PM 42.8 °F 39.3 °F 32.0 °F 66% 30.14 in 10.0 mi West 5.8 mph - N/A   Clear
10:35 PM 42.8 °F 38.6 °F 32.0 °F 66% 30.14 in 10.0 mi West 6.9 mph 16.1 mph N/A   Clear
10:55 PM 41.0 °F 35.8 °F 32.0 °F 70% 30.14 in 10.0 mi West 8.1 mph - N/A   Clear
11:15 PM 41.0 °F 35.8 °F 30.2 °F 65% 30.14 in 10.0 mi West 8.1 mph - N/A   Clear
11:35 PM 41.0 °F 36.4 °F 30.2 °F 65% 30.15 in 10.0 mi WNW 6.9 mph - N/A   Clear
11:55 PM 42.8 °F 38.6 °F 30.2 °F 61% 30.15 in 10.0 mi West 6.9 mph - N/A   Clear